Torna al catalogo

SL-23 DEB

LostHEO
NORAD 43385·DEBRIS·🇷🇺 Russia

Lanciato Feb 26, 2009 da Baikonur Cosmodrome

Loading…

Prossimi Passaggi (prossime 24 ore)

TLE

ObsoletoSource: Space-Track

Epoca: Feb 18, 2025, 05:46 UTC

1 43385U 09009D   25049.24029079 -.00000114  00000-0  00000-0 0  9991
2 43385  34.7773 327.1904 6947111 106.0333   1.5684  2.21230851 93816

Traccia SL-23 DEB in tempo reale con AllMySat

Download on the App Store